owner,sensor,date,latitude,longitude,air_pressure(mBar),qcFlag 
COMPS,ioos:station:USF.COMPS:C10:1,2009-11-12T00:20:00Z,27.1690,-82.9260,1006.6,1111122 
COMPS,ioos:station:USF.COMPS:C10:1,2009-11-12T00:40:00Z,27.1690,-82.9260,1006.6,1111122 
COMPS,ioos:station:USF.COMPS:C10:1,2009-11-12T01:00:00Z,27.1690,-82.9260,1006.7,1111122 
COMPS,ioos:station:USF.COMPS:C10:1,2009-11-21T16:20:00Z,27.1690,-82.9260,1015.5,1111122 
COMPS,ioos:station:USF.COMPS:C10:1,2009-11-21T16:40:00Z,27.1690,-82.9260,1015.2,1111122 
COMPS,ioos:station:USF.COMPS:C10:1,2009-11-21T17:00:00Z,27.1690,-82.9260,1014.9,1111122 
COMPS,ioos:station:USF.COMPS:C10:1,2009-11-21T17:20:00Z,27.1690,-82.9260,1014.7,1111122 
COMPS,ioos:station:USF.COMPS:C10:1,2009-11-21T17:40:00Z,27.1690,-82.9260,1014.7,1111122 
COMPS,ioos:station:USF.COMPS:C10:1,2009-11-21T18:00:00Z,27.1690,-82.9260,1014.5,1111122 
COMPS,ioos:station:USF.COMPS:C10:1,2009-11-21T18:20:00Z,27.1690,-82.9260,1014.3,1111122 
COMPS,ioos:station:USF.COMPS:C10:1,2009-11-21T18:40:00Z,27.1690,-82.9260,1014.3,1111122 
COMPS,ioos:station:USF.COMPS:C10:1,2009-11-21T19:00:00Z,27.1690,-82.9260,1014.3,1111122 
COMPS,ioos:station:USF.COMPS:C10:1,2009-11-21T19:20:00Z,27.1690,-82.9260,1013.8,1111122 
COMPS,ioos:station:USF.COMPS:C10:1,2009-11-21T19:40:00Z,27.1690,-82.9260,1013.8,1111122 
COMPS,ioos:station:USF.COMPS:C10:1,2009-11-21T20:00:00Z,27.1690,-82.9260,1013.8,1111122 
COMPS,ioos:station:USF.COMPS:C10:1,2009-11-21T20:20:00Z,27.1690,-82.9260,1014.1,1111122 
COMPS,ioos:station:USF.COMPS:C10:1,2009-11-21T20:40:00Z,27.1690,-82.9260,1014.1,1111122 
COMPS,ioos:station:USF.COMPS:C10:1,2009-11-21T21:00:00Z,27.1690,-82.9260,1013.9,1111122 
COMPS,ioos:station:USF.COMPS:C10:1,2009-11-21T21:20:00Z,27.1690,-82.9260,1013.8,1111122 
COMPS,ioos:station:USF.COMPS:C10:1,2009-11-21T21:40:00Z,27.1690,-82.9260,1014.1,1111122 
COMPS,ioos:station:USF.COMPS:C10:1,2009-11-21T22:00:00Z,27.1690,-82.9260,1014.0,1111122 
COMPS,ioos:station:USF.COMPS:C10:1,2009-11-21T22:20:00Z,27.1690,-82.9260,1013.9,1111122 
COMPS,ioos:station:USF.COMPS:C10:1,2009-11-21T22:40:00Z,27.1690,-82.9260,1013.9,1111122 
COMPS,ioos:station:USF.COMPS:C10:1,2009-11-21T23:00:00Z,27.1690,-82.9260,1014.1,1111122 
COMPS,ioos:station:USF.COMPS:C10:1,2009-11-21T23:20:00Z,27.1690,-82.9260,1014.1,1111122 
COMPS,ioos:station:USF.COMPS:C10:1,2009-11-21T23:40:00Z,27.1690,-82.9260,1014.1,1111122 
COMPS,ioos:station:USF.COMPS:C10:1,2009-11-22T00:00:00Z,27.1690,-82.9260,1014.3,1111122 
COMPS,ioos:station:USF.COMPS:C10:1,2009-11-22T00:20:00Z,27.1690,-82.9260,1014.5,1111122 
COMPS,ioos:station:USF.COMPS:C10:1,2009-11-22T00:40:00Z,27.1690,-82.9260,1014.6,1111122 
COMPS,ioos:station:USF.COMPS:C10:1,2009-11-22T01:00:00Z,27.1690,-82.9260,1014.7,1111122 
COMPS,ioos:station:USF.COMPS:C10:1,2009-11-22T01:20:00Z,27.1690,-82.9260,1014.7,1111122 
COMPS,ioos:station:USF.COMPS:C10:1,2009-11-22T01:40:00Z,27.1690,-82.9260,1015.0,1111122 
COMPS,ioos:station:USF.COMPS:C10:1,2009-11-22T02:00:00Z,27.1690,-82.9260,1015.0,1111122 
COMPS,ioos:station:USF.COMPS:C10:1,2009-11-22T02:20:00Z,27.1690,-82.9260,1014.9,1111122 
COMPS,ioos:station:USF.COMPS:C10:1,2009-11-22T02:40:00Z,27.1690,-82.9260,1015.0,1111122 
COMPS,ioos:station:USF.COMPS:C10:1,2009-11-22T03:00:00Z,27.1690,-82.9260,1015.0,1111122 
COMPS,ioos:station:USF.COMPS:C10:1,2009-11-22T03:20:00Z,27.1690,-82.9260,1015.1,1111122 
COMPS,ioos:station:USF.COMPS:C10:1,2009-11-22T03:40:00Z,27.1690,-82.9260,1014.8,1111122 
COMPS,ioos:station:USF.COMPS:C10:1,2009-11-22T04:00:00Z,27.1690,-82.9260,1014.9,1111122 
COMPS,ioos:station:USF.COMPS:C10:1,2009-11-22T04:20:00Z,27.1690,-82.9260,1014.7,1111122 
COMPS,ioos:station:USF.COMPS:C10:1,2009-11-22T04:40:00Z,27.1690,-82.9260,1014.8,1111122 
COMPS,ioos:station:USF.COMPS:C10:1,2009-11-22T05:00:00Z,27.1690,-82.9260,1014.7,1111122 
COMPS,ioos:station:USF.COMPS:C10:1,2009-11-22T05:20:00Z,27.1690,-82.9260,1014.7,1111122 
COMPS,ioos:station:USF.COMPS:C10:1,2009-11-22T05:40:00Z,27.1690,-82.9260,1014.3,1111122 
COMPS,ioos:station:USF.COMPS:C10:1,2009-11-22T06:00:00Z,27.1690,-82.9260,1014.4,1111122 
COMPS,ioos:station:USF.COMPS:C10:1,2009-11-22T06:20:00Z,27.1690,-82.9260,1014.3,1111122 
COMPS,ioos:station:USF.COMPS:C10:1,2009-11-22T06:40:00Z,27.1690,-82.9260,1014.2,1111122 
COMPS,ioos:station:USF.COMPS:C10:1,2009-11-22T07:00:00Z,27.1690,-82.9260,1014.0,1111122 
COMPS,ioos:station:USF.COMPS:C10:1,2009-11-22T07:20:00Z,27.1690,-82.9260,1013.8,1111122 
COMPS,ioos:station:USF.COMPS:C10:1,2009-11-22T07:40:00Z,27.1690,-82.9260,1013.7,1111122 
COMPS,ioos:station:USF.COMPS:C10:1,2009-11-22T08:00:00Z,27.1690,-82.9260,1013.6,1111122 
COMPS,ioos:station:USF.COMPS:C10:1,2009-11-22T08:20:00Z,27.1690,-82.9260,1013.6,1111122 
COMPS,ioos:station:USF.COMPS:C10:1,2009-11-22T08:40:00Z,27.1690,-82.9260,1013.4,1111122 
COMPS,ioos:station:USF.COMPS:C10:1,2009-11-22T09:00:00Z,27.1690,-82.9260,1013.4,1111122 
COMPS,ioos:station:USF.COMPS:C10:1,2009-11-22T09:20:00Z,27.1690,-82.9260,1013.2,1111122 
COMPS,ioos:station:USF.COMPS:C10:1,2009-11-22T09:40:00Z,27.1690,-82.9260,1013.5,1111122 
COMPS,ioos:station:USF.COMPS:C10:1,2009-11-22T10:00:00Z,27.1690,-82.9260,1013.6,1111122 
COMPS,ioos:station:USF.COMPS:C10:1,2009-11-22T10:20:00Z,27.1690,-82.9260,1013.6,1111122 
COMPS,ioos:station:USF.COMPS:C10:1,2009-11-22T10:40:00Z,27.1690,-82.9260,1013.6,1111122 
COMPS,ioos:station:USF.COMPS:C10:1,2009-11-22T11:00:00Z,27.1690,-82.9260,1013.8,1111122 
COMPS,ioos:station:USF.COMPS:C10:1,2009-11-22T11:20:00Z,27.1690,-82.9260,1014.0,1111122 
COMPS,ioos:station:USF.COMPS:C10:1,2009-11-22T11:40:00Z,27.1690,-82.9260,1014.0,1111122 
COMPS,ioos:station:USF.COMPS:C10:1,2009-11-22T12:00:00Z,27.1690,-82.9260,1014.0,1111122 
COMPS,ioos:station:USF.COMPS:C10:1,2009-11-22T12:20:00Z,27.1690,-82.9260,1014.4,1111122 
COMPS,ioos:station:USF.COMPS:C10:1,2009-11-22T12:40:00Z,27.1690,-82.9260,1014.7,1111122 
COMPS,ioos:station:USF.COMPS:C10:1,2009-11-22T13:00:00Z,27.1690,-82.9260,1014.8,1111122 
COMPS,ioos:station:USF.COMPS:C10:1,2009-11-22T13:20:00Z,27.1690,-82.9260,1014.9,1111122 
COMPS,ioos:station:USF.COMPS:C10:1,2009-11-22T13:40:00Z,27.1690,-82.9260,1015.2,1111122 
COMPS,ioos:station:USF.COMPS:C10:1,2009-11-22T14:00:00Z,27.1690,-82.9260,1015.2,1111122 
COMPS,ioos:station:USF.COMPS:C10:1,2009-11-22T14:20:00Z,27.1690,-82.9260,1015.5,1111122 
COMPS,ioos:station:USF.COMPS:C10:1,2009-11-22T14:40:00Z,27.1690,-82.9260,1015.7,1111122 
COMPS,ioos:station:USF.COMPS:C10:1,2009-11-22T15:00:00Z,27.1690,-82.9260,1015.6,1111122 
COMPS,ioos:station:USF.COMPS:C10:1,2009-11-22T15:20:00Z,27.1690,-82.9260,1015.6,1111122 
COMPS,ioos:station:USF.COMPS:C10:1,2009-11-22T15:40:00Z,27.1690,-82.9260,1015.4,1111122 
COMPS,ioos:station:USF.COMPS:C10:1,2009-11-22T16:00:00Z,27.1690,-82.9260,1015.4,1111122 
COMPS,ioos:station:USF.COMPS:C10:1,2009-11-22T16:20:00Z,27.1690,-82.9260,1015.0,1111122 
COMPS,ioos:station:USF.COMPS:C10:1,2009-11-22T16:40:00Z,27.1690,-82.9260,1014.9,1111122 
COMPS,ioos:station:USF.COMPS:C10:1,2009-11-22T17:00:00Z,27.1690,-82.9260,1014.7,1111122 
COMPS,ioos:station:USF.COMPS:C10:1,2009-11-22T17:20:00Z,27.1690,-82.9260,1014.2,1111122 
COMPS,ioos:station:USF.COMPS:C10:1,2009-11-22T17:40:00Z,27.1690,-82.9260,1014.2,1111122 
COMPS,ioos:station:USF.COMPS:C10:1,2009-11-22T18:00:00Z,27.1690,-82.9260,1014.2,1111122 
COMPS,ioos:station:USF.COMPS:C10:1,2009-11-22T18:20:00Z,27.1690,-82.9260,1013.3,1111122 
COMPS,ioos:station:USF.COMPS:C10:1,2009-11-22T18:40:00Z,27.1690,-82.9260,1013.2,1111122 
COMPS,ioos:station:USF.COMPS:C10:1,2009-11-22T19:00:00Z,27.1690,-82.9260,1013.4,1111122 
COMPS,ioos:station:USF.COMPS:C10:1,2009-11-22T19:20:00Z,27.1690,-82.9260,1013.1,1111122 
COMPS,ioos:station:USF.COMPS:C10:1,2009-11-22T19:40:00Z,27.1690,-82.9260,1013.1,1111122 
COMPS,ioos:station:USF.COMPS:C10:1,2009-11-22T20:00:00Z,27.1690,-82.9260,1013.1,1111122 
COMPS,ioos:station:USF.COMPS:C10:1,2009-11-22T20:20:00Z,27.1690,-82.9260,1013.2,1111122 
COMPS,ioos:station:USF.COMPS:C10:1,2009-11-22T20:40:00Z,27.1690,-82.9260,1013.6,1111122 
COMPS,ioos:station:USF.COMPS:C10:1,2009-11-22T21:00:00Z,27.1690,-82.9260,1013.6,1111122 
COMPS,ioos:station:USF.COMPS:C10:1,2009-11-22T21:20:00Z,27.1690,-82.9260,1014.0,1111122 
COMPS,ioos:station:USF.COMPS:C10:1,2009-11-22T21:40:00Z,27.1690,-82.9260,1014.3,1111122 
COMPS,ioos:station:USF.COMPS:C10:1,2009-11-22T22:00:00Z,27.1690,-82.9260,1014.5,1111122 
COMPS,ioos:station:USF.COMPS:C10:1,2009-11-22T22:20:00Z,27.1690,-82.9260,1014.7,1111122 
COMPS,ioos:station:USF.COMPS:C10:1,2009-11-22T22:40:00Z,27.1690,-82.9260,1014.7,1111122 
COMPS,ioos:station:USF.COMPS:C10:1,2009-11-22T23:00:00Z,27.1690,-82.9260,1014.8,1111122 
COMPS,ioos:station:USF.COMPS:C10:1,2009-11-22T23:20:00Z,27.1690,-82.9260,1014.8,1111122 
COMPS,ioos:station:USF.COMPS:C10:1,2009-11-22T23:40:00Z,27.1690,-82.9260,1015.0,1111122 
COMPS,ioos:station:USF.COMPS:C10:1,2009-11-23T00:00:00Z,27.1690,-82.9260,1015.2,1111122 
COMPS,ioos:station:USF.COMPS:C10:1,2009-11-23T00:20:00Z,27.1690,-82.9260,1015.1,1111122 
COMPS,ioos:station:USF.COMPS:C10:1,2009-11-23T00:40:00Z,27.1690,-82.9260,1015.4,1111122 
COMPS,ioos:station:USF.COMPS:C10:1,2009-11-23T01:00:00Z,27.1690,-82.9260,1015.4,1111122 
COMPS,ioos:station:USF.COMPS:C10:1,2009-11-23T01:20:00Z,27.1690,-82.9260,1015.3,1111122 
COMPS,ioos:station:USF.COMPS:C10:1,2009-11-23T01:40:00Z,27.1690,-82.9260,1015.3,1111122 
COMPS,ioos:station:USF.COMPS:C10:1,2009-11-23T02:00:00Z,27.1690,-82.9260,1015.3,1111122 
COMPS,ioos:station:USF.COMPS:C10:1,2009-11-23T02:20:00Z,27.1690,-82.9260,1015.3,1111122 
COMPS,ioos:station:USF.COMPS:C10:1,2009-11-23T02:40:00Z,27.1690,-82.9260,1015.1,1111122 
COMPS,ioos:station:USF.COMPS:C10:1,2009-11-23T03:00:00Z,27.1690,-82.9260,1015.1,1111122 
COMPS,ioos:station:USF.COMPS:C10:1,2009-11-23T03:20:00Z,27.1690,-82.9260,1015.6,1111122 
COMPS,ioos:station:USF.COMPS:C10:1,2009-11-23T03:40:00Z,27.1690,-82.9260,1015.5,1111122 
COMPS,ioos:station:USF.COMPS:C10:1,2009-11-23T04:00:00Z,27.1690,-82.9260,1015.9,1111122 
COMPS,ioos:station:USF.COMPS:C10:1,2009-11-23T04:20:00Z,27.1690,-82.9260,1015.7,1111122 
COMPS,ioos:station:USF.COMPS:C10:1,2009-11-23T04:40:00Z,27.1690,-82.9260,1015.6,1111122 
COMPS,ioos:station:USF.COMPS:C10:1,2009-11-23T05:00:00Z,27.1690,-82.9260,1015.6,1111122 
COMPS,ioos:station:USF.COMPS:C10:1,2009-11-23T05:20:00Z,27.1690,-82.9260,1015.5,1111122 
COMPS,ioos:station:USF.COMPS:C10:1,2009-11-23T05:40:00Z,27.1690,-82.9260,1015.6,1111122 
COMPS,ioos:station:USF.COMPS:C10:1,2009-11-23T06:00:00Z,27.1690,-82.9260,1015.5,1111122 
COMPS,ioos:station:USF.COMPS:C10:1,2009-11-23T06:20:00Z,27.1690,-82.9260,1015.5,1111122 
COMPS,ioos:station:USF.COMPS:C10:1,2009-11-23T06:40:00Z,27.1690,-82.9260,1015.7,1111122 
COMPS,ioos:station:USF.COMPS:C10:1,2009-11-23T07:00:00Z,27.1690,-82.9260,1015.7,1111122 
COMPS,ioos:station:USF.COMPS:C10:1,2009-11-23T07:20:00Z,27.1690,-82.9260,1015.6,1111122 
COMPS,ioos:station:USF.COMPS:C10:1,2009-11-23T07:40:00Z,27.1690,-82.9260,1015.5,1111122 
COMPS,ioos:station:USF.COMPS:C10:1,2009-11-23T08:00:00Z,27.1690,-82.9260,1015.9,1111122 
COMPS,ioos:station:USF.COMPS:C10:1,2009-11-23T08:20:00Z,27.1690,-82.9260,1015.8,1111122 
COMPS,ioos:station:USF.COMPS:C10:1,2009-11-23T08:40:00Z,27.1690,-82.9260,1015.7,1111122 
COMPS,ioos:station:USF.COMPS:C10:1,2009-11-23T09:00:00Z,27.1690,-82.9260,1015.8,1111122 
COMPS,ioos:station:USF.COMPS:C10:1,2009-11-23T09:20:00Z,27.1690,-82.9260,1016.0,1111122 
COMPS,ioos:station:USF.COMPS:C10:1,2009-11-23T09:40:00Z,27.1690,-82.9260,1016.1,1111122 
COMPS,ioos:station:USF.COMPS:C10:1,2009-11-23T10:00:00Z,27.1690,-82.9260,1016.2,1111122 
COMPS,ioos:station:USF.COMPS:C10:1,2009-11-23T10:20:00Z,27.1690,-82.9260,1016.1,1111122 
COMPS,ioos:station:USF.COMPS:C10:1,2009-11-23T10:40:00Z,27.1690,-82.9260,1016.2,1111122 
COMPS,ioos:station:USF.COMPS:C10:1,2009-11-23T11:00:00Z,27.1690,-82.9260,1016.4,1111122 
COMPS,ioos:station:USF.COMPS:C10:1,2009-11-23T11:20:00Z,27.1690,-82.9260,1016.5,1111122 
COMPS,ioos:station:USF.COMPS:C10:1,2009-11-23T11:40:00Z,27.1690,-82.9260,1016.7,1111122 
COMPS,ioos:station:USF.COMPS:C10:1,2009-11-23T12:00:00Z,27.1690,-82.9260,1017.2,1111122 
COMPS,ioos:station:USF.COMPS:C10:1,2009-11-23T12:20:00Z,27.1690,-82.9260,1017.4,1111122 
COMPS,ioos:station:USF.COMPS:C10:1,2009-11-23T12:40:00Z,27.1690,-82.9260,1017.5,1111122 
COMPS,ioos:station:USF.COMPS:C10:1,2009-11-23T13:00:00Z,27.1690,-82.9260,1018.1,1111122 
COMPS,ioos:station:USF.COMPS:C10:1,2009-11-23T13:20:00Z,27.1690,-82.9260,1018.2,1111122 
COMPS,ioos:station:USF.COMPS:C10:1,2009-11-23T13:40:00Z,27.1690,-82.9260,1018.3,1111122 
COMPS,ioos:station:USF.COMPS:C10:1,2009-11-23T14:00:00Z,27.1690,-82.9260,1018.5,1111122 
COMPS,ioos:station:USF.COMPS:C10:1,2009-11-23T14:20:00Z,27.1690,-82.9260,1018.6,1111122 
COMPS,ioos:station:USF.COMPS:C10:1,2009-11-23T14:40:00Z,27.1690,-82.9260,1019.0,1111122 
COMPS,ioos:station:USF.COMPS:C10:1,2009-11-23T15:00:00Z,27.1690,-82.9260,1019.1,1111122 
COMPS,ioos:station:USF.COMPS:C10:1,2009-11-23T15:20:00Z,27.1690,-82.9260,1019.4,1111122 
COMPS,ioos:station:USF.COMPS:C10:1,2009-11-23T15:40:00Z,27.1690,-82.9260,1019.1,1111122 
COMPS,ioos:station:USF.COMPS:C10:1,2009-11-23T16:00:00Z,27.1690,-82.9260,1019.2,1111122 
COMPS,ioos:station:USF.COMPS:C10:1,2009-11-23T16:20:00Z,27.1690,-82.9260,1019.0,1111122 
COMPS,ioos:station:USF.COMPS:C10:1,2009-11-23T16:40:00Z,27.1690,-82.9260,1018.9,1111122 
COMPS,ioos:station:USF.COMPS:C10:1,2009-11-23T17:00:00Z,27.1690,-82.9260,1018.5,1111122 
COMPS,ioos:station:USF.COMPS:C10:1,2009-11-23T17:20:00Z,27.1690,-82.9260,1018.4,1111122 
COMPS,ioos:station:USF.COMPS:C10:1,2009-11-23T17:40:00Z,27.1690,-82.9260,1018.0,1111122 
COMPS,ioos:station:USF.COMPS:C10:1,2009-11-23T18:00:00Z,27.1690,-82.9260,1017.6,1111122 
COMPS,ioos:station:USF.COMPS:C10:1,2009-11-23T18:20:00Z,27.1690,-82.9260,1017.5,1111122 
COMPS,ioos:station:USF.COMPS:C10:1,2009-11-23T18:40:00Z,27.1690,-82.9260,1017.3,1111122 
COMPS,ioos:station:USF.COMPS:C10:1,2009-11-23T19:00:00Z,27.1690,-82.9260,1017.2,1111122 
COMPS,ioos:station:USF.COMPS:C10:1,2009-11-23T19:20:00Z,27.1690,-82.9260,1017.4,1111122 
COMPS,ioos:station:USF.COMPS:C10:1,2009-11-23T19:40:00Z,27.1690,-82.9260,1017.2,1111122 
COMPS,ioos:station:USF.COMPS:C10:1,2009-11-23T20:00:00Z,27.1690,-82.9260,1017.2,1111122 
COMPS,ioos:station:USF.COMPS:C10:1,2009-11-23T20:20:00Z,27.1690,-82.9260,1017.2,1111122 
COMPS,ioos:station:USF.COMPS:C10:1,2009-11-23T20:40:00Z,27.1690,-82.9260,1016.9,1111122 
COMPS,ioos:station:USF.COMPS:C10:1,2009-11-23T21:00:00Z,27.1690,-82.9260,1017.0,1111122 
COMPS,ioos:station:USF.COMPS:C10:1,2009-11-23T21:20:00Z,27.1690,-82.9260,1016.9,1111122 
COMPS,ioos:station:USF.COMPS:C10:1,2009-11-23T21:40:00Z,27.1690,-82.9260,1017.3,1111122 
COMPS,ioos:station:USF.COMPS:C10:1,2009-11-23T22:00:00Z,27.1690,-82.9260,1017.5,1111122 
COMPS,ioos:station:USF.COMPS:C10:1,2009-11-23T22:20:00Z,27.1690,-82.9260,1017.6,1111122 
COMPS,ioos:station:USF.COMPS:C10:1,2009-11-23T22:40:00Z,27.1690,-82.9260,1017.6,1111122 
COMPS,ioos:station:USF.COMPS:C10:1,2009-11-23T23:00:00Z,27.1690,-82.9260,1017.6,1111122 
COMPS,ioos:station:USF.COMPS:C10:1,2009-11-23T23:20:00Z,27.1690,-82.9260,1017.7,1111122 
COMPS,ioos:station:USF.COMPS:C10:1,2009-11-23T23:40:00Z,27.1690,-82.9260,1017.8,1111122 
COMPS,ioos:station:USF.COMPS:C10:1,2009-11-24T00:00:00Z,27.1690,-82.9260,1017.8,1111122 
COMPS,ioos:station:USF.COMPS:C10:1,2009-11-24T00:20:00Z,27.1690,-82.9260,1017.8,1111122 
COMPS,ioos:station:USF.COMPS:C10:1,2009-11-24T00:40:00Z,27.1690,-82.9260,1017.7,1111122 
COMPS,ioos:station:USF.COMPS:C10:1,2009-11-24T01:00:00Z,27.1690,-82.9260,1017.8,1111122 
COMPS,ioos:station:USF.COMPS:C10:1,2009-11-24T01:20:00Z,27.1690,-82.9260,1017.8,1111122 
COMPS,ioos:station:USF.COMPS:C10:1,2009-11-24T01:40:00Z,27.1690,-82.9260,1017.8,1111122 
COMPS,ioos:station:USF.COMPS:C10:1,2009-11-24T02:00:00Z,27.1690,-82.9260,1017.8,1111122 
COMPS,ioos:station:USF.COMPS:C10:1,2009-11-24T02:20:00Z,27.1690,-82.9260,1018.0,1111122 
COMPS,ioos:station:USF.COMPS:C10:1,2009-11-24T02:40:00Z,27.1690,-82.9260,1018.1,1111122 
COMPS,ioos:station:USF.COMPS:C10:1,2009-11-24T03:00:00Z,27.1690,-82.9260,1018.2,1111122 
COMPS,ioos:station:USF.COMPS:C10:1,2009-11-24T03:20:00Z,27.1690,-82.9260,1018.3,1111122 
COMPS,ioos:station:USF.COMPS:C10:1,2009-11-24T03:40:00Z,27.1690,-82.9260,1018.2,1111122 
COMPS,ioos:station:USF.COMPS:C10:1,2009-11-24T04:00:00Z,27.1690,-82.9260,1018.1,1111122 
COMPS,ioos:station:USF.COMPS:C10:1,2009-11-24T04:20:00Z,27.1690,-82.9260,1017.8,1111122 
COMPS,ioos:station:USF.COMPS:C10:1,2009-11-24T04:40:00Z,27.1690,-82.9260,1017.6,1111122 
COMPS,ioos:station:USF.COMPS:C10:1,2009-11-24T05:00:00Z,27.1690,-82.9260,1017.5,1111122 
COMPS,ioos:station:USF.COMPS:C10:1,2009-11-24T05:20:00Z,27.1690,-82.9260,1017.3,1111122 
COMPS,ioos:station:USF.COMPS:C10:1,2009-11-24T05:40:00Z,27.1690,-82.9260,1017.3,1111122 
COMPS,ioos:station:USF.COMPS:C10:1,2009-11-24T06:00:00Z,27.1690,-82.9260,1017.2,1111122 
COMPS,ioos:station:USF.COMPS:C10:1,2009-11-24T06:20:00Z,27.1690,-82.9260,1017.4,1111122 
COMPS,ioos:station:USF.COMPS:C10:1,2009-11-24T06:40:00Z,27.1690,-82.9260,1017.1,1111122 
COMPS,ioos:station:USF.COMPS:C10:1,2009-11-24T07:00:00Z,27.1690,-82.9260,1017.0,1111122 
COMPS,ioos:station:USF.COMPS:C10:1,2009-11-24T07:20:00Z,27.1690,-82.9260,1016.9,1111122 
COMPS,ioos:station:USF.COMPS:C10:1,2009-11-24T07:40:00Z,27.1690,-82.9260,1016.7,1111122 
COMPS,ioos:station:USF.COMPS:C10:1,2009-11-24T08:00:00Z,27.1690,-82.9260,1016.7,1111122 
COMPS,ioos:station:USF.COMPS:C10:1,2009-11-24T08:20:00Z,27.1690,-82.9260,1016.8,1111122 
COMPS,ioos:station:USF.COMPS:C10:1,2009-11-24T08:40:00Z,27.1690,-82.9260,1016.7,1111122 
COMPS,ioos:station:USF.COMPS:C10:1,2009-11-24T09:00:00Z,27.1690,-82.9260,1016.7,1111122 
COMPS,ioos:station:USF.COMPS:C10:1,2009-11-24T09:20:00Z,27.1690,-82.9260,1016.6,1111122 
COMPS,ioos:station:USF.COMPS:C10:1,2009-11-24T09:40:00Z,27.1690,-82.9260,1016.7,1111122 
COMPS,ioos:station:USF.COMPS:C10:1,2009-11-24T10:00:00Z,27.1690,-82.9260,1016.7,1111122 
COMPS,ioos:station:USF.COMPS:C10:1,2009-11-24T10:20:00Z,27.1690,-82.9260,1016.5,1111122 
COMPS,ioos:station:USF.COMPS:C10:1,2009-11-24T10:40:00Z,27.1690,-82.9260,1016.9,1111122 
COMPS,ioos:station:USF.COMPS:C10:1,2009-11-24T11:00:00Z,27.1690,-82.9260,1016.9,1111122 
COMPS,ioos:station:USF.COMPS:C10:1,2009-11-24T11:20:00Z,27.1690,-82.9260,1016.9,1111122 
COMPS,ioos:station:USF.COMPS:C10:1,2009-11-24T11:40:00Z,27.1690,-82.9260,1017.2,1111122 
COMPS,ioos:station:USF.COMPS:C10:1,2009-11-24T12:00:00Z,27.1690,-82.9260,1017.5,1111122 
COMPS,ioos:station:USF.COMPS:C10:1,2009-11-24T12:20:00Z,27.1690,-82.9260,1017.7,1111122 
COMPS,ioos:station:USF.COMPS:C10:1,2009-11-24T12:40:00Z,27.1690,-82.9260,1017.8,1111122 
COMPS,ioos:station:USF.COMPS:C10:1,2009-11-24T13:00:00Z,27.1690,-82.9260,1017.8,1111122 
COMPS,ioos:station:USF.COMPS:C10:1,2009-11-24T13:20:00Z,27.1690,-82.9260,1017.8,1111122 
COMPS,ioos:station:USF.COMPS:C10:1,2009-11-24T13:40:00Z,27.1690,-82.9260,1018.1,1111122 
COMPS,ioos:station:USF.COMPS:C10:1,2009-11-24T14:00:00Z,27.1690,-82.9260,1018.1,1111122 
COMPS,ioos:station:USF.COMPS:C10:1,2009-11-24T14:20:00Z,27.1690,-82.9260,1018.3,1111122 
COMPS,ioos:station:USF.COMPS:C10:1,2009-11-24T14:40:00Z,27.1690,-82.9260,1018.5,1111122 
COMPS,ioos:station:USF.COMPS:C10:1,2009-11-24T15:00:00Z,27.1690,-82.9260,1018.2,1111122 
COMPS,ioos:station:USF.COMPS:C10:1,2009-11-24T15:20:00Z,27.1690,-82.9260,1018.1,1111122 
COMPS,ioos:station:USF.COMPS:C10:1,2009-11-24T15:40:00Z,27.1690,-82.9260,1018.2,1111122 
COMPS,ioos:station:USF.COMPS:C10:1,2009-11-24T16:00:00Z,27.1690,-82.9260,1018.1,1111122 
COMPS,ioos:station:USF.COMPS:C10:1,2009-11-24T16:20:00Z,27.1690,-82.9260,1018.1,1111122 
COMPS,ioos:station:USF.COMPS:C10:1,2009-11-24T16:40:00Z,27.1690,-82.9260,1017.6,1111122 
COMPS,ioos:station:USF.COMPS:C10:1,2009-11-24T17:00:00Z,27.1690,-82.9260,1017.3,1111122 
COMPS,ioos:station:USF.COMPS:C10:1,2009-11-24T17:20:00Z,27.1690,-82.9260,1016.9,1111122 
COMPS,ioos:station:USF.COMPS:C10:1,2009-11-24T17:40:00Z,27.1690,-82.9260,1016.8,1111122 
COMPS,ioos:station:USF.COMPS:C10:1,2009-11-24T18:00:00Z,27.1690,-82.9260,1016.5,1111122 
COMPS,ioos:station:USF.COMPS:C10:1,2009-11-24T18:20:00Z,27.1690,-82.9260,1016.3,1111122 
COMPS,ioos:station:USF.COMPS:C10:1,2009-11-24T18:40:00Z,27.1690,-82.9260,1016.1,1111122 
COMPS,ioos:station:USF.COMPS:C10:1,2009-11-24T19:00:00Z,27.1690,-82.9260,1015.8,1111122 
COMPS,ioos:station:USF.COMPS:C10:1,2009-11-24T19:20:00Z,27.1690,-82.9260,1015.7,1111122 
COMPS,ioos:station:USF.COMPS:C10:1,2009-11-24T19:40:00Z,27.1690,-82.9260,1015.6,1111122 
COMPS,ioos:station:USF.COMPS:C10:1,2009-11-24T20:00:00Z,27.1690,-82.9260,1015.5,1111122 
COMPS,ioos:station:USF.COMPS:C10:1,2009-11-24T20:20:00Z,27.1690,-82.9260,1015.3,1111122 
COMPS,ioos:station:USF.COMPS:C10:1,2009-11-24T20:40:00Z,27.1690,-82.9260,1015.2,1111122 
COMPS,ioos:station:USF.COMPS:C10:1,2009-11-24T21:00:00Z,27.1690,-82.9260,1015.3,1111122 
COMPS,ioos:station:USF.COMPS:C10:1,2009-11-24T21:20:00Z,27.1690,-82.9260,1015.1,1111122 
COMPS,ioos:station:USF.COMPS:C10:1,2009-11-24T21:40:00Z,27.1690,-82.9260,1014.8,1111122 
COMPS,ioos:station:USF.COMPS:C10:1,2009-11-24T22:00:00Z,27.1690,-82.9260,1014.9,1111122 
COMPS,ioos:station:USF.COMPS:C10:1,2009-11-24T22:20:00Z,27.1690,-82.9260,1014.9,1111122 
COMPS,ioos:station:USF.COMPS:C10:1,2009-11-24T22:40:00Z,27.1690,-82.9260,1014.9,1111122 
COMPS,ioos:station:USF.COMPS:C10:1,2009-11-24T23:00:00Z,27.1690,-82.9260,1015.2,1111122 
COMPS,ioos:station:USF.COMPS:C10:1,2009-11-24T23:20:00Z,27.1690,-82.9260,1015.2,1111122 
COMPS,ioos:station:USF.COMPS:C10:1,2009-11-24T23:40:00Z,27.1690,-82.9260,1015.1,1111122 
COMPS,ioos:station:USF.COMPS:C10:1,2009-11-25T00:00:00Z,27.1690,-82.9260,1015.3,1111122 
COMPS,ioos:station:USF.COMPS:C10:1,2009-11-25T00:20:00Z,27.1690,-82.9260,1015.5,1111122 
COMPS,ioos:station:USF.COMPS:C10:1,2009-11-25T00:40:00Z,27.1690,-82.9260,1015.4,1111122 
COMPS,ioos:station:USF.COMPS:C10:1,2009-11-25T01:00:00Z,27.1690,-82.9260,1015.6,1111122 
COMPS,ioos:station:USF.COMPS:C10:1,2009-11-25T01:20:00Z,27.1690,-82.9260,1015.6,1111122 
COMPS,ioos:station:USF.COMPS:C10:1,2009-11-25T01:40:00Z,27.1690,-82.9260,1015.8,1111122 
COMPS,ioos:station:USF.COMPS:C10:1,2009-11-25T02:00:00Z,27.1690,-82.9260,1015.7,1111122 
COMPS,ioos:station:USF.COMPS:C10:1,2009-11-25T02:20:00Z,27.1690,-82.9260,1015.7,1111122 
COMPS,ioos:station:USF.COMPS:C10:1,2009-11-25T02:40:00Z,27.1690,-82.9260,1015.6,1111122 
COMPS,ioos:station:USF.COMPS:C10:1,2009-11-25T03:00:00Z,27.1690,-82.9260,1015.7,1111122 
COMPS,ioos:station:USF.COMPS:C10:1,2009-11-25T03:20:00Z,27.1690,-82.9260,1015.8,1111122 
COMPS,ioos:station:USF.COMPS:C10:1,2009-11-25T03:40:00Z,27.1690,-82.9260,1015.8,1111122 
COMPS,ioos:station:USF.COMPS:C10:1,2009-11-25T04:00:00Z,27.1690,-82.9260,1015.5,1111122 
COMPS,ioos:station:USF.COMPS:C10:1,2009-11-25T04:20:00Z,27.1690,-82.9260,1015.2,1111122 
COMPS,ioos:station:USF.COMPS:C10:1,2009-11-25T04:40:00Z,27.1690,-82.9260,1015.1,1111122 
COMPS,ioos:station:USF.COMPS:C10:1,2009-11-25T05:00:00Z,27.1690,-82.9260,1014.7,1111122 
COMPS,ioos:station:USF.COMPS:C10:1,2009-11-25T05:20:00Z,27.1690,-82.9260,1014.6,1111122 
COMPS,ioos:station:USF.COMPS:C10:1,2009-11-25T05:40:00Z,27.1690,-82.9260,1014.5,1111122 
COMPS,ioos:station:USF.COMPS:C10:1,2009-11-25T06:00:00Z,27.1690,-82.9260,1014.5,1111122 
COMPS,ioos:station:USF.COMPS:C10:1,2009-11-25T06:20:00Z,27.1690,-82.9260,1014.1,1111122 
COMPS,ioos:station:USF.COMPS:C10:1,2009-11-25T06:40:00Z,27.1690,-82.9260,1014.0,1111122 
COMPS,ioos:station:USF.COMPS:C10:1,2009-11-25T07:00:00Z,27.1690,-82.9260,1013.9,1111122 
COMPS,ioos:station:USF.COMPS:C10:1,2009-11-25T07:20:00Z,27.1690,-82.9260,1013.8,1111122 
COMPS,ioos:station:USF.COMPS:C10:1,2009-11-25T07:40:00Z,27.1690,-82.9260,1013.5,1111122 
COMPS,ioos:station:USF.COMPS:C10:1,2009-11-25T08:00:00Z,27.1690,-82.9260,1013.0,1111122 
COMPS,ioos:station:USF.COMPS:C10:1,2009-11-25T09:20:00Z,27.1690,-82.9260,1013.7,1111122 